User: anonymous   Login
Location: Unspecified
(0.0000°N, 0.0000°E)
Time: 13:07:53
(UTC+00:00)
Language:

Optus B1 - Orbit

View from above orbital plane
View from above orbital plane
View from above satellite
View from above satellite

Ground track
Ground track

The orbit data is extracted from the following two-line orbital elements,

1 22087U 92054A   16203.71944096 +.00000023 +00000-0 +00000-0 0  9996
2 22087 008.1956 048.6037 0008952 057.7077 302.2864 00.99205256098814
Epoch (UTC): 21 July 2016 17:15:59
Eccentricity: 0.0008952
inclination: 8.1956°
perigee height: 36050 km
apogee height: 36126 km
right ascension of ascending node: 48.6037°
argument of perigee: 57.7077°
revolutions per day: 0.99205256
mean anomaly at epoch: 302.2864°
orbit number at epoch: 9881

The dashed part of the orbit path shows where the satellite is in the earth's shadow,  

DLR